sat.trackr.live / text

‹ back to catalog

STARLINK-35095

NORAD 65425 · 2025-192X

PAYLOAD ACTIVE UNKNOWN

§ Identity

Operator
Country
US
Launch date
2025-08-31
Launch site
AFETR
Launch vehicle
Mass (kg)
RCS (m²)

Purposes: comms

External: N2YO · Heavens-Above · Gunter

§ Orbital elements

Epoch: 2026-05-24T23:34:21.883008Z

Period
94.01 min
Inclination
53.1600°
Eccentricity
0.0001228
Mean motion
15.31709957 rev/d
Perigee alt
469.9 km
Apogee alt
471.6 km
Semi-major
6,848.8 km
B*
5.8707e-4
RAAN
238.0693°
Arg perigee
82.6260°
Mean anomaly
277.4881°
Rev number
4,106

§ Raw data

STARLINK-350951 65425U 25192X   26144.98219772  .00017902  00000+0  58707-3 0  99912 65425  53.1600 238.0693 0001228  82.6260 277.4881 15.31709957 41062

JSON: /api/v1/satellites/65425 · /tle

For live sub-satellite position, see the globe view (requires WebGL).

§ Visibility from observer

Set your observer location to see the next 7 days of passes ≥ 10°. The values pass through the URL so the page stays shareable.

No JS? Fill the form by hand. The geolocation button needs JavaScript.